TimePDT,TemperatureF,Dew PointF,Humidity,Sea Level PressureIn,VisibilityMPH,Wind Direction,Wind SpeedMPH,Gust SpeedMPH,PrecipitationIn,Events,Conditions,WindDirDegrees,DateUTC
12:53 AM,24.1,10.0,55,29.99,10.0,SSE,9.2,-,N/A,,Clear,160,2013-03-18 07:53:00
1:53 AM,21.9,10.0,60,30.00,10.0,South,6.9,-,N/A,,Clear,180,2013-03-18 08:53:00
2:53 AM,18.0,10.0,71,30.02,10.0,South,5.8,-,N/A,,Clear,180,2013-03-18 09:53:00
3:53 AM,19.9,10.9,68,30.02,10.0,South,9.2,-,N/A,,Clear,170,2013-03-18 10:53:00
4:53 AM,19.9,10.9,68,30.02,10.0,South,9.2,-,N/A,,Clear,170,2013-03-18 11:53:00
5:53 AM,18.0,10.9,74,30.06,10.0,South,5.8,-,N/A,,Clear,190,2013-03-18 12:53:00
6:53 AM,18.0,10.9,74,30.11,10.0,SSW,3.5,-,N/A,,Clear,210,2013-03-18 13:53:00
7:53 AM,27.0,15.1,61,30.09,10.0,Calm,Calm,-,N/A,,Clear,0,2013-03-18 14:53:00
8:53 AM,39.9,12.0,32,30.07,10.0,Calm,Calm,-,N/A,,Clear,0,2013-03-18 15:53:00
9:53 AM,43.0,12.0,28,30.06,10.0,NNW,9.2,-,N/A,,Clear,340,2013-03-18 16:53:00
10:53 AM,46.0,12.0,25,30.06,10.0,North,8.1,-,N/A,,Clear,10,2013-03-18 17:53:00
11:53 AM,46.9,10.9,23,30.04,10.0,WNW,8.1,24.2,N/A,,Clear,290,2013-03-18 18:53:00
12:53 PM,51.1,10.0,19,30.03,10.0,NW,15.0,23.0,N/A,,Clear,320,2013-03-18 19:53:00
1:53 PM,52.0,10.0,19,30.02,10.0,NW,10.4,17.3,N/A,,Clear,310,2013-03-18 20:53:00
2:53 PM,53.1,9.0,17,30.01,10.0,West,12.7,19.6,N/A,,Clear,270,2013-03-18 21:53:00
3:53 PM,52.0,9.0,18,30.01,10.0,WNW,8.1,19.6,N/A,,Clear,300,2013-03-18 22:53:00
4:53 PM,53.1,10.0,18,29.99,10.0,NW,10.4,18.4,N/A,,Clear,310,2013-03-18 23:53:00
5:53 PM,52.0,8.1,17,30.00,10.0,West,9.2,-,N/A,,Clear,280,2013-03-19 00:53:00
6:53 PM,45.0,10.0,24,30.04,10.0,West,3.5,-,N/A,,Clear,280,2013-03-19 01:53:00
7:53 PM,41.0,12.0,31,30.03,10.0,West,9.2,-,N/A,,Clear,280,2013-03-19 02:53:00
8:53 PM,37.0,12.9,37,30.01,10.0,Calm,Calm,-,N/A,,Clear,0,2013-03-19 03:53:00
9:53 PM,39.9,15.1,36,30.00,10.0,WNW,8.1,-,N/A,,Overcast,290,2013-03-19 04:53:00
10:53 PM,34.0,16.0,48,30.02,10.0,SSW,4.6,-,N/A,,Mostly Cloudy,210,2013-03-19 05:53:00
11:53 PM,34.0,18.0,52,30.02,10.0,Calm,Calm,-,N/A,,Overcast,0,2013-03-19 06:53:00